Orlando International, FL

8:53 PM EDT on May 21, 2018 (GMT -0400)
Orlando International

Weather History for KMCO - July, 2012

Change the Weather History Date:

Tuesday, July 10, 2012

  Actual Average Record
Temperature  
Mean Temperature 85 °F 82 °F  
Max Temperature 95 °F 92 °F 99 °F (1980)
Min Temperature 74 °F 74 °F 65 °F (1936)
Degree Days  
Heating Degree Days 0 0  
Month to date heating degree days 0 0  
Since 1 June heating degree days 0 0  
Since 1 July heating degree days 0 0  
Cooling Degree Days 20 18  
Month to date cooling degree days 190 172  
Year to date cooling degree days 1681 1463  
Since 1 June cooling degree days 642 662  
Growing Degree Days 34 (Base 50)    
Moisture  
Dew Point 72 °F    
Average Humidity 71    
Maximum Humidity 100    
Minimum Humidity 41    
Precipitation  
Precipitation 0.80 in 0.23 in 2.46 in (1951)
Month to date precipitation 1.00 2.34  
Year to date precipitation 20.01 24.55  
Sea Level Pressure  
Sea Level Pressure 30.03 in    
Wind  
Wind Speed 3 mph (South)    
Max Wind Speed 41 mph    
Max Gust Speed 55 mph    
Visibility 9 miles    
Events Fog , Rain , Thunderstorm    
T = Trace of Precipitation, MM = Missing Value Source: NWS Daily Summary

Daily Weather History Graph

Daily Weather History Graph

Search for Another Location

Airport or City:

Astronomy

Jul. 10, 2012 Rise Set
Actual Time 6:35 AM EDT 8:25 PM EDT
Civil Twilight 6:09 AM EDT 8:52 PM EDT
Nautical Twilight 5:37 AM EDT 9:24 PM EDT
Astronomical Twilight 5:03 AM EDT 9:57 PM EDT
Moon 12:19 AM EDT (7/10) 1:18 PM EDT (7/10)
Length of Visible Light 14h 43m
Length of Day
13h 50m
Waning Gibbous, 54% of the Moon is Illuminated
Jul 10
Waning Gibbous
Jul 10
Last Quarter
Jul 19
New
Jul 26
First Quarter
Aug 1
Full

Hourly Weather History & Observations

Time (EDT) Temp. Heat Index Dew Point Humidity Pressure Visibility Wind Dir Wind Speed Gust Speed Precip Events Conditions
12:53 AM 75.9 °F - 72.0 °F 87% 30.05 in 10.0 mi SSE 4.6 mph - N/A   Partly Cloudy
1:53 AM 77.0 °F - 73.0 °F 88% 30.04 in 10.0 mi SSE 5.8 mph - N/A   Partly Cloudy
2:53 AM 77.0 °F - 73.9 °F 90% 30.02 in 10.0 mi Calm Calm - N/A   Clear
3:53 AM 75.2 °F - 73.4 °F 94% 30.01 in 10.0 mi Calm Calm - N/A   Clear
4:53 AM 75.2 °F - 73.4 °F 94% 30.02 in 10.0 mi Calm Calm - N/A   Partly Cloudy
5:53 AM 75.2 °F - 73.4 °F 94% 30.03 in 10.0 mi Calm Calm - N/A   Partly Cloudy
6:53 AM 73.9 °F - 73.0 °F 97% 30.04 in 10.0 mi Calm Calm - N/A   Partly Cloudy
9:53 AM 84.0 °F 91.2 °F 73.9 °F 72% 30.05 in 10.0 mi South 4.6 mph - N/A   Scattered Clouds
10:53 AM 87.8 °F 95.6 °F 73.4 °F 62% 30.06 in 10.0 mi ESE 5.8 mph - N/A   Scattered Clouds
11:53 AM 89.6 °F 94.7 °F 69.8 °F 52% 30.05 in 10.0 mi SSE 6.9 mph - N/A   Scattered Clouds
12:53 PM 91.0 °F 97.6 °F 71.1 °F 52% 30.03 in 10.0 mi SSE 5.8 mph - N/A   Scattered Clouds
1:53 PM 91.0 °F 95.6 °F 69.1 °F 48% 30.02 in 10.0 mi Calm Calm - N/A   Scattered Clouds
2:53 PM 93.2 °F 96.2 °F 66.2 °F 41% 29.99 in 10.0 mi Variable 4.6 mph - N/A   Mostly Cloudy
3:14 PM 93.2 °F 97.7 °F 68.0 °F 44% 29.99 in 10.0 mi South 10.4 mph - N/A Thunderstorm Thunderstorm
3:30 PM 78.8 °F - 69.8 °F 74% 30.07 in 1.0 mi SE 39.1 mph 55.2 mph 0.00 in Rain , Thunderstorm Thunderstorms and Rain
3:34 PM 73.4 °F - 69.8 °F 88% 30.04 in 0.5 mi NW 15.0 mph 55.2 mph 0.27 in Fog , Rain , Thunderstorm Thunderstorms and Rain
3:39 PM 73.4 °F - 69.8 °F 88% 30.03 in 0.5 mi NNW 15.0 mph 51.8 mph 0.63 in Rain , Thunderstorm Heavy Thunderstorms and Rain
3:53 PM 75.2 °F - 73.4 °F 94% 30.03 in 7.0 mi South 4.6 mph - N/A Rain , Thunderstorm Thunderstorms and Rain
4:53 PM 80.1 °F 85.4 °F 75.9 °F 87% 29.99 in 10.0 mi SSE 6.9 mph - 0.01 in Rain Light Rain
5:53 PM 82.9 °F 89.4 °F 73.9 °F 74% 30.00 in 10.0 mi South 8.1 mph - 0.00 in   Mostly Cloudy
6:53 PM 80.6 °F 85.4 °F 73.4 °F 79% 29.99 in 10.0 mi South 3.5 mph - N/A   Mostly Cloudy
7:53 PM 81.0 °F 86.2 °F 73.9 °F 79% 30.02 in 10.0 mi Calm Calm - N/A   Mostly Cloudy
8:53 PM 81.0 °F 86.2 °F 73.9 °F 79% 30.04 in 7.0 mi West 4.6 mph - N/A   Overcast
9:53 PM 80.1 °F 84.2 °F 73.0 °F 79% 30.06 in 10.0 mi WNW 5.8 mph - N/A   Mostly Cloudy
10:27 PM 78.8 °F - 71.6 °F 78% 30.06 in 10.0 mi WSW 9.2 mph - N/A   Mostly Cloudy
10:53 PM 78.1 °F - 72.0 °F 81% 30.05 in 10.0 mi SW 3.5 mph - N/A   Scattered Clouds
11:53 PM 75.9 °F - 71.1 °F 85% 30.05 in 10.0 mi Calm Calm - N/A   Partly Cloudy